Temperature
25 24 23 24 28 28 30 33 34 34 34 34 33 33 33 31 29 26 26 25 24 23 24 22 22 21 20 20 20 20 20 19 19 19 19 19 19 19 19 19 19 19 19 19 19 19 20 20 20
25 24 25 28 29 27 30 33 33 33 33 33 33 33 33 30 29 27 26 25 23 24 24 23 22 21 21 20 20 20 20 20 19 19 19 19 19 19 19 19 19 19 19 19 19 19 19 19 20
25 25 27 31 29 28 31 33 34 34 33 33 33 32 31 29 28 27 26 25 23 23 23 23 22 22 21 20 20 20 20 20 20 20 19 19 19 19 19 19 19 19 19 19 19 19 19 19 19
25 28 29 31 32 32 34 34 35 34 34 33 33 32 29 27 28 27 25 24 23 22 23 23 22 22 21 21 20 20 20 20 20 20 20 19 19 19 19 19 19 19 19 19 19 19 19 19 19
28 30 32 32 33 34 35 35 35 34 34 33 33 32 28 27 27 26 25 24 23 22 22 23 23 22 22 21 21 20 20 20 20 20 20 19 19 19 19 19 19 19 19 19 19 19 19 19 19
29 32 33 32 33 34 35 35 35 35 34 34 34 32 27 27 26 25 25 25 24 23 22 23 23 22 22 21 21 20 20 20 20 20 20 20 19 19 19 19 19 19 19 19 19 19 19 19 19
31 32 32 33 33 34 35 35 35 34 34 33 33 32 28 27 26 26 25 25 25 23 22 23 23 22 22 21 21 20 20 20 20 20 20 20 20 20 20 19 19 19 19 19 19 19 19 19 19
31 32 33 34 34 34 35 35 35 34 33 33 33 32 28 27 26 26 25 25 25 23 22 22 23 22 22 21 21 21 20 20 20 20 20 20 20 20 20 20 19 19 19 19 19 19 19 19 19
31 31 32 34 34 35 35 35 35 34 33 32 32 31 29 27 26 26 25 25 25 23 22 21 21 22 22 22 21 21 21 21 20 20 20 20 20 19 19 19 19 19 19 19 19 19 19 19 19
32 32 33 35 35 35 35 35 35 35 34 33 32 30 29 27 27 26 25 25 24 23 22 21 21 21 21 21 20 21 21 21 21 20 20 20 19 19 18 19 19 19 19 19 19 19 19 19 19
33 33 34 35 35 35 35 35 35 35 34 33 32 29 29 28 27 26 25 25 24 23 22 21 21 20 20 20 20 20 20 20 20 20 19 19 19 19 19 19 19 19 19 19 19 19 19 19 19
33 33 34 34 34 34 34 34 34 35 34 33 32 31 30 28 27 26 25 25 24 23 22 21 21 20 20 21 21 20 20 20 20 20 19 19 19 19 19 19 19 19 19 19 19 19 19 19 18
32 33 33 33 33 33 33 34 34 34 34 33 32 31 30 29 28 27 26 25 24 23 22 22 21 20 20 21 21 21 21 21 20 20 20 20 19 19 20 20 20 19 19 19 19 19 19 19 19
32 33 33 33 33 33 33 34 34 34 34 33 32 32 31 30 29 28 26 25 24 23 22 22 21 20 20 21 21 21 21 21 21 21 20 20 20 19 19 20 19 19 19 19 19 19 19 19 19
31 31 32 33 33 34 34 33 34 34 34 33 32 32 32 30 29 28 27 26 25 24 23 22 21 20 20 20 20 20 20 20 21 21 21 20 20 19 19 19 19 19 19 19 19 19 19 19 19
32 31 31 33 34 34 33 32 34 34 34 33 32 32 31 30 29 28 27 26 25 25 24 22 22 21 20 20 20 20 20 20 21 21 21 20 20 20 19 19 19 19 19 19 19 19 19 19 19
31 31 32 34 34 34 33 32 33 33 33 32 32 31 31 29 28 28 27 26 25 24 24 23 22 21 20 20 20 21 20 20 21 21 21 21 20 19 19 19 19 19 19 19 19 19 19 19 19
31 32 33 33 34 33 32 32 33 33 32 32 31 31 30 29 28 27 26 26 25 24 23 22 22 21 21 20 20 20 20 20 20 20 20 20 20 20 19 19 19 19 19 19 19 19 19 19 19
30 30 31 32 33 32 31 31 32 33 32 31 30 29 28 27 26 25 24 24 24 23 23 22 21 21 20 20 20 20 20 20 20 20 20 20 20 20 19 19 19 19 19 19 19 19 19 19 18
30 30 30 31 32 31 30 30 31 32 32 31 29 28 27 26 25 24 23 23 22 22 22 21 20 20 20 20 20 19 19 19 19 19 19 20 20 19 19 19 19 19 19 19 18 18 18 18 18
30 30 30 30 30 30 30 29 31 32 31 30 29 27 27 25 24 23 22 21 21 21 21 20 20 19 19 19 19 19 19 19 19 19 19 19 19 19 19 19 18 18 18 18 18 18 18 17 17
29 30 29 29 28 28 29 28 30 31 31 30 28 26 25 25 24 23 22 21 21 20 20 19 19 19 19 19 19 19 18 18 19 19 19 18 18 18 18 18 18 18 18 18 17 17 17 17 17
29 29 29 28 28 27 28 28 29 31 29 27 26 25 25 24 24 23 22 22 21 20 20 19 19 18 18 18 18 18 18 18 18 18 18 18 18 18 18 18 18 18 17 17 17 16 16 16 16
29 29 28 28 28 27 27 26 28 29 28 26 26 25 25 25 24 23 23 22 21 21 20 19 19 18 17 17 17 17 17 18 18 18 17 17 17 17 17 17 17 17 17 16 16 16 16 15 15
28 27 26 26 27 26 26 26 27 29 29 27 26 26 26 25 25 24 23 22 22 21 20 20 19 18 17 16 16 16 17 17 17 17 17 17 16 16 16 16 16 16 16 16 16 15 15 15 15
28 27 25 24 25 26 27 27 29 29 28 27 27 26 26 25 25 24 23 23 22 21 20 20 19 18 17 16 16 16 16 16 16 16 16 16 16 16 16 16 16 15 15 15 15 15 15 15 15
27 27 28 26 26 26 27 29 28 28 28 27 27 26 26 26 25 24 23 23 22 21 20 19 18 17 16 16 15 15 15 15 15 15 15 15 15 15 15 15 15 15 15 15 15 15 15 15 15
28 28 27 26 24 24 26 27 26 26 27 27 27 27 26 25 25 24 23 22 21 20 19 18 17 17 16 15 15 15 15 15 14 14 14 14 14 14 14 14 14 14 14 14 14 14 14 14 15
28 27 27 26 25 24 24 25 28 27 27 27 27 26 26 25 24 23 22 21 20 19 18 18 17 16 15 15 14 14 14 14 13 13 13 13 13 13 13 13 13 13 13 14 14 14 14 14 14
28 27 26 24 24 24 24 25 28 27 27 27 26 25 25 24 24 23 22 21 20 19 18 17 16 15 15 14 14 13 13 13 13 12 12 12 12 12 13 13 13 13 13 13 13 13 13 13 13
Wind_Speed
12 13 11 7 5 5 3 12 14 14 13 12 11 8 10 16 11 8 12 17 23 22 22 21 19 17 15 14 14 14 14 13 12 11 10 9 8 7 6 5 5 5 5 6 6 5 5 5 6
12 15 10 6 3 3 4 13 14 13 9 9 8 5 12 16 12 12 14 18 24 22 21 20 20 18 16 15 14 14 14 13 12 11 10 9 8 8 7 6 5 4 4 4 4 4 4 4 4
12 15 7 6 3 2 6 12 10 10 9 8 7 10 10 9 9 11 16 20 22 20 20 21 21 18 17 15 14 13 13 12 12 11 10 9 9 8 8 7 6 5 4 4 3 3 3 3 4
9 8 6 8 2 3 8 9 7 10 9 7 5 10 12 6 5 13 19 20 21 20 20 22 20 19 17 15 14 13 12 12 11 10 10 9 9 8 8 8 7 6 5 4 4 4 4 4 5
11 8 10 5 3 4 8 8 6 11 6 8 7 13 11 7 10 17 17 19 19 20 20 22 20 19 17 16 14 13 12 12 11 10 9 8 8 7 8 8 7 6 5 5 5 6 6 6 6
7 9 10 4 3 5 7 5 3 8 5 7 5 13 8 9 12 15 17 16 18 20 20 21 20 19 17 16 14 13 12 12 11 10 9 8 8 8 8 8 8 7 7 7 7 7 8 8 9
11 13 14 8 6 3 5 3 4 6 6 10 6 8 9 12 12 14 14 14 17 20 20 18 18 17 16 15 14 13 12 11 11 11 10 10 9 9 9 10 10 9 9 9 9 9 10 10 11
10 11 17 10 5 3 5 1 2 3 8 7 5 7 11 14 15 15 13 12 15 19 20 17 17 16 15 15 15 14 13 13 12 12 11 11 11 12 13 13 14 13 12 12 12 12 13 13 14
12 12 14 9 4 3 5 2 1 2 5 3 3 9 15 18 17 16 12 11 12 15 17 17 16 15 15 16 17 16 14 14 13 13 13 13 12 15 16 18 18 18 17 16 15 15 16 16 17
9 12 14 6 7 6 4 3 3 3 4 5 6 11 16 17 16 16 14 14 13 13 14 13 16 15 14 14 16 15 14 15 15 14 15 14 14 13 14 19 22 21 20 18 17 18 17 16 15
13 16 17 13 9 8 8 7 5 7 4 5 5 11 15 16 15 15 14 12 12 11 12 11 12 11 12 9 11 10 12 13 16 16 15 14 12 11 12 9 15 18 18 15 16 17 15 14 14
14 15 15 12 12 10 10 10 9 9 4 7 5 7 12 13 14 15 13 11 13 12 13 13 11 9 7 7 7 8 7 7 10 15 16 12 6 6 6 4 9 12 12 12 10 8 12 13 14
11 14 16 14 12 13 13 13 13 12 8 1 1 3 6 11 13 13 15 14 13 12 12 11 11 10 8 6 4 7 7 7 9 10 15 12 7 8 7 4 3 4 6 5 5 4 6 6 7
11 11 13 15 15 14 15 15 15 15 11 5 4 5 8 10 11 13 14 13 13 15 14 12 12 11 8 7 6 5 5 4 5 6 12 15 9 6 6 5 4 4 6 5 3 5 5 5 5
10 13 16 18 18 15 13 15 16 16 10 5 5 6 6 5 7 10 12 12 13 14 13 11 12 11 11 10 9 8 7 7 6 5 9 12 11 6 5 5 5 5 6 4 3 4 3 5 5
14 15 18 19 14 8 7 13 11 10 8 5 5 6 3 2 4 6 8 9 8 9 10 11 13 13 12 10 8 8 9 8 6 6 7 10 11 9 5 6 5 3 3 2 2 4 4 4 4
16 17 18 15 9 6 8 10 9 4 4 3 4 5 4 3 4 3 5 8 8 6 6 8 8 9 12 12 9 10 8 7 6 4 4 7 11 11 6 6 4 3 3 3 5 3 2 3 4
12 12 11 9 2 0 6 12 14 5 2 5 5 4 2 1 2 2 1 1 4 5 5 6 8 7 7 8 8 8 10 8 6 6 4 5 6 8 6 6 6 5 4 4 4 4 3 3 4
12 13 13 11 7 7 10 14 17 13 5 5 2 4 4 5 7 7 4 5 4 2 2 4 5 5 4 5 7 8 8 7 6 6 7 6 6 6 6 6 5 6 6 6 5 4 5 4 3
9 10 12 12 7 7 11 15 16 15 11 7 2 1 2 5 7 7 6 7 8 8 6 3 2 4 6 6 6 7 7 7 7 7 6 6 6 5 7 7 6 6 5 6 6 6 4 4 4
10 9 11 12 14 15 18 20 20 18 14 9 7 5 3 4 6 7 6 7 7 7 7 7 6 5 5 6 6 7 6 6 8 8 6 5 5 5 5 6 7 6 7 7 7 6 7 5 4
10 11 11 12 14 16 18 18 17 13 8 10 8 8 7 6 5 5 4 4 4 4 4 4 4 5 5 6 5 7 7 9 10 8 8 6 6 7 6 7 7 7 7 7 7 7 6 5 5
9 13 13 16 17 19 18 16 15 7 4 10 10 7 6 4 3 2 1 1 3 4 4 3 2 4 5 6 6 7 7 7 7 7 8 8 8 8 9 8 7 7 7 7 7 5 6 5 4
8 11 16 18 16 17 10 11 9 4 10 15 11 7 5 4 2 2 1 2 3 4 5 4 3 4 4 6 6 7 8 9 9 9 8 7 7 7 9 9 7 7 7 7 6 6 5 4 4
7 9 10 10 6 5 3 6 8 5 11 12 10 7 4 1 2 2 2 3 4 5 5 4 4 4 4 5 6 7 7 9 9 9 8 8 7 7 8 9 8 8 7 6 6 6 5 5 5
6 8 8 9 11 14 13 10 3 10 9 7 4 2 3 5 4 4 4 4 4 6 5 5 5 5 5 5 6 6 8 8 8 8 8 7 6 7 7 8 8 7 7 7 6 5 5 5 5
7 7 9 9 14 15 11 8 8 8 3 1 4 5 6 5 5 6 7 6 6 6 7 7 6 6 5 6 7 7 8 8 8 8 7 6 5 5 5 6 7 7 7 6 5 4 4 3 3
10 9 8 7 9 12 13 11 4 1 4 4 4 7 7 7 8 7 5 5 5 5 6 6 6 5 5 6 6 7 8 7 6 5 5 4 4 3 3 4 4 4 4 4 4 3 3 3 2
8 9 9 9 10 12 15 12 11 9 5 5 8 10 10 11 10 7 6 5 5 6 6 6 5 5 4 5 5 6 7 6 5 4 4 4 5 4 3 2 1 1 2 3 2 2 2 2 2
9 9 10 9 11 12 15 15 10 5 5 7 9 9 10 10 10 7 7 6 6 6 6 6 5 4 3 3 4 4 5 5 5 5 6 6 6 6 6 5 4 2 1 1 1 1 3 5 5
Wind_Direction
257 252 243 259 256 274 352 62 57 58 60 63 46 32 44 51 54 87 130 137 123 127 135 138 138 138 139 142 145 146 146 144 141 140 139 139 138 136 134 130 122 112 105 103 103 104 107 112 116
274 269 255 253 268 319 54 70 64 59 59 77 76 36 62 63 69 112 132 127 124 129 139 142 140 139 139 140 142 145 147 147 146 146 147 149 152 155 157 157 155 146 135 131 131 131 134 139 146
268 265 269 249 168 180 75 82 86 80 63 52 76 64 55 64 76 116 127 131 127 133 140 139 145 143 143 144 145 147 149 150 152 153 156 160 165 170 172 172 172 170 166 167 171 174 176 185 195
271 263 236 261 306 135 93 93 95 89 83 64 54 81 75 57 89 122 134 136 131 138 139 143 148 147 148 150 152 153 155 156 159 161 165 171 178 181 178 179 179 182 186 192 199 210 217 222 225
263 263 264 287 318 77 79 81 77 85 64 63 63 86 81 88 109 124 143 139 142 143 137 147 152 152 154 158 160 161 162 163 165 167 172 179 184 186 184 185 190 196 205 214 220 224 229 233 239
277 272 286 311 288 94 83 73 38 68 68 89 68 99 94 116 121 141 149 149 149 140 138 148 155 157 160 164 167 169 170 172 173 176 181 187 192 198 201 200 203 209 215 222 230 235 238 237 239
277 297 294 274 250 154 91 37 34 51 48 51 18 89 119 131 137 149 144 163 149 140 138 151 158 162 166 170 174 177 180 183 185 188 192 197 203 208 213 214 215 216 219 224 229 235 240 243 244
279 291 289 281 246 132 100 349 30 21 71 60 9 60 132 139 151 147 154 173 144 138 142 156 160 164 170 176 183 186 189 193 198 201 203 207 213 218 220 219 218 219 220 224 229 235 240 244 247
268 269 277 315 339 93 95 304 135 75 115 107 71 65 122 144 155 149 162 175 150 145 146 159 162 168 177 183 184 188 196 202 206 210 214 216 222 221 218 223 220 216 219 222 227 234 240 244 249
244 263 273 334 344 358 38 312 338 286 200 170 136 114 131 149 158 159 170 179 163 155 155 164 162 173 185 194 173 186 196 199 207 213 207 211 226 237 231 216 213 213 217 221 227 233 239 243 250
250 262 285 313 331 335 318 318 319 294 317 66 107 145 146 156 164 169 178 185 165 165 168 171 163 175 188 197 166 189 200 193 200 219 214 207 221 232 239 205 200 210 216 222 229 229 234 239 240
254 275 288 296 307 310 302 302 299 297 325 78 74 121 148 166 175 180 179 188 170 180 182 178 171 177 209 210 183 187 201 190 195 202 210 206 206 233 236 211 187 197 209 212 227 211 217 231 241
263 270 276 277 277 277 278 278 280 278 285 51 69 163 180 185 182 183 179 190 179 182 192 180 173 177 199 236 242 203 209 205 198 193 197 205 202 214 230 221 209 229 241 206 208 224 217 225 239
284 287 282 281 276 269 267 269 268 264 253 232 216 222 215 201 187 184 182 185 188 186 195 188 179 179 187 209 228 258 240 215 225 199 192 198 212 212 217 209 200 222 245 261 239 250 242 233 245
275 278 271 260 249 247 256 264 264 263 252 236 251 253 237 186 183 191 180 179 194 191 192 184 181 185 188 208 219 230 238 242 223 216 207 194 205 214 208 222 219 219 227 240 257 273 289 280 273
260 257 261 258 232 230 247 269 279 269 241 226 258 276 274 123 199 201 170 169 196 193 182 184 197 191 189 200 216 231 238 240 234 213 208 199 206 218 214 216 224 213 211 205 234 240 252 271 285
248 245 255 255 182 223 252 274 284 286 288 278 273 269 259 175 195 200 176 176 194 192 176 179 208 200 190 200 210 234 251 256 262 243 209 200 201 208 207 221 223 221 221 223 247 240 223 257 275
300 292 267 265 243 189 286 290 288 277 284 291 309 328 345 261 134 128 208 232 164 168 180 188 199 221 202 201 214 227 240 243 238 248 246 224 203 198 197 211 216 222 227 222 226 239 240 243 258
322 315 318 313 328 329 300 291 290 293 282 273 308 2 29 34 54 47 23 15 30 72 162 200 218 234 242 235 231 232 238 245 249 238 230 222 218 205 194 223 217 220 229 230 230 234 239 241 246
287 288 287 283 292 290 285 281 280 278 265 249 233 292 1 59 67 55 25 18 19 24 12 356 342 291 271 258 256 257 259 259 252 250 237 217 209 207 215 218 231 233 236 234 231 229 232 232 231
280 285 298 317 325 309 293 280 269 254 235 200 185 174 135 93 78 69 48 30 19 11 3 5 9 349 322 297 279 274 272 264 263 260 251 236 230 222 230 233 239 238 237 235 227 224 228 231 239
294 326 333 312 297 290 290 292 290 277 210 175 152 125 110 95 84 67 53 32 2 352 350 356 356 352 341 328 307 286 270 264 262 262 258 248 239 238 235 236 233 234 235 236 233 224 221 222 238
305 316 303 286 279 276 274 275 280 296 125 115 109 111 105 111 105 85 345 329 318 310 309 310 344 342 335 326 311 300 290 281 279 273 262 248 237 229 232 231 229 230 232 232 233 230 223 221 237
295 291 283 269 261 266 303 320 308 44 104 124 133 144 165 172 176 183 287 305 293 293 292 301 317 312 311 309 307 301 298 296 292 283 270 256 243 230 227 227 222 225 226 225 227 228 227 224 241
288 302 306 313 294 279 303 284 284 125 118 135 152 169 189 212 280 284 303 300 289 285 289 293 291 290 298 303 304 307 304 296 285 281 273 264 256 239 224 219 216 220 218 218 218 220 226 226 237
287 289 305 322 318 319 307 288 354 104 103 112 130 196 259 275 283 296 294 285 293 310 320 315 315 309 309 310 311 309 301 294 288 284 278 270 262 256 242 224 218 218 217 218 210 215 226 231 236
292 292 317 308 293 293 300 326 75 83 80 150 218 239 259 282 306 311 314 331 333 334 334 327 322 321 320 323 322 308 307 303 298 296 291 285 275 264 245 227 217 216 218 215 206 214 230 246 246
252 278 292 294 302 305 304 318 51 33 244 237 279 312 314 316 311 316 339 344 342 338 325 318 319 319 329 330 328 325 333 327 322 316 315 313 309 303 275 237 223 207 202 201 206 226 230 213 214
268 268 303 310 301 300 302 306 321 339 359 344 325 324 325 323 320 330 338 346 345 337 327 327 325 324 334 337 347 346 341 345 360 10 13 21 25 26 24 360 339 213 194 203 212 241 206 160 135
287 292 292 283 287 291 291 294 311 36 352 323 321 331 337 333 327 329 336 344 340 331 325 324 319 323 342 354 359 3 4 15 25 37 42 41 38 32 30 21 16 7 346 29 55 53 107 110 101
Height
1497 1496 1496 1500 1497 1494 1487 1470 1466 1468 1470 1473 1476 1475 1476 1483 1493 1505 1506 1507 1508 1509 1513 1517 1521 1524 1527 1529 1531 1533 1535 1537 1539 1541 1542 1544 1545 1547 1548 1549 1550 1551 1552 1553 1554 1555 1555 1556 1557
1498 1498 1502 1499 1497 1508 1490 1472 1474 1474 1475 1476 1479 1478 1479 1489 1494 1501 1505 1508 1508 1510 1514 1518 1522 1525 1527 1530 1532 1534 1536 1538 1540 1542 1543 1544 1546 1547 1548 1550 1551 1552 1553 1554 1555 1555 1556 1556 1557
1498 1499 1501 1491 1494 1502 1486 1473 1474 1475 1477 1477 1479 1482 1487 1495 1499 1502 1506 1509 1510 1512 1515 1518 1522 1525 1528 1530 1532 1535 1537 1539 1540 1542 1543 1545 1546 1547 1548 1550 1551 1552 1553 1554 1555 1555 1556 1556 1557
1500 1500 1496 1488 1486 1478 1471 1471 1471 1473 1477 1479 1478 1483 1493 1499 1501 1503 1506 1510 1511 1513 1516 1519 1522 1526 1528 1530 1533 1535 1537 1539 1541 1542 1544 1545 1546 1547 1548 1550 1551 1552 1553 1553 1554 1555 1556 1556 1556
1503 1498 1488 1486 1481 1470 1467 1470 1471 1474 1478 1479 1480 1486 1496 1501 1502 1504 1507 1510 1513 1515 1516 1520 1522 1525 1528 1530 1532 1534 1536 1538 1540 1542 1543 1545 1546 1547 1548 1549 1550 1552 1552 1553 1554 1554 1555 1555 1556
1501 1491 1489 1491 1482 1471 1470 1473 1471 1473 1476 1478 1480 1485 1498 1501 1503 1505 1508 1511 1514 1515 1516 1520 1523 1525 1528 1530 1532 1534 1536 1538 1540 1542 1543 1545 1546 1547 1548 1549 1550 1551 1552 1553 1553 1554 1554 1554 1554
1501 1492 1488 1483 1480 1473 1472 1474 1474 1476 1479 1482 1484 1484 1497 1501 1503 1506 1509 1512 1514 1515 1515 1519 1522 1525 1527 1529 1532 1534 1536 1538 1539 1541 1543 1544 1545 1546 1547 1548 1549 1550 1551 1552 1552 1553 1553 1553 1553
1499 1494 1486 1476 1476 1474 1473 1475 1476 1477 1481 1485 1486 1485 1496 1500 1503 1506 1509 1512 1515 1515 1515 1519 1521 1524 1526 1529 1531 1533 1535 1537 1538 1540 1541 1543 1544 1545 1546 1547 1548 1549 1550 1550 1551 1551 1551 1551 1551
1498 1497 1491 1477 1476 1474 1473 1475 1475 1478 1481 1485 1487 1489 1493 1498 1502 1506 1509 1512 1515 1516 1516 1518 1520 1523 1525 1528 1530 1532 1534 1536 1537 1539 1540 1541 1542 1543 1544 1546 1547 1548 1548 1549 1549 1549 1549 1549 1549
1494 1494 1482 1473 1473 1472 1474 1476 1476 1477 1477 1482 1485 1491 1494 1498 1502 1505 1508 1511 1513 1516 1517 1519 1520 1521 1524 1527 1528 1530 1532 1534 1535 1537 1538 1539 1541 1542 1544 1544 1545 1545 1546 1546 1546 1547 1547 1547 1546
1489 1488 1480 1475 1475 1476 1476 1476 1477 1477 1477 1481 1486 1489 1492 1497 1501 1504 1507 1510 1512 1515 1517 1519 1520 1521 1524 1527 1528 1529 1530 1531 1533 1535 1537 1538 1539 1541 1542 1543 1542 1543 1544 1544 1544 1544 1544 1544 1544
1487 1485 1481 1480 1480 1481 1481 1480 1480 1479 1479 1482 1486 1489 1492 1496 1499 1503 1506 1509 1511 1513 1515 1517 1518 1520 1523 1526 1528 1528 1530 1531 1531 1532 1534 1536 1537 1539 1540 1542 1541 1541 1541 1541 1542 1542 1542 1542 1542
1486 1486 1484 1482 1482 1483 1482 1481 1480 1479 1480 1482 1486 1489 1492 1494 1497 1501 1504 1507 1509 1511 1513 1515 1516 1517 1519 1522 1525 1527 1529 1530 1530 1531 1532 1534 1535 1536 1538 1539 1539 1540 1540 1541 1540 1541 1541 1540 1541
1487 1484 1483 1482 1481 1480 1480 1479 1479 1477 1478 1480 1484 1487 1490 1492 1495 1498 1501 1504 1507 1509 1511 1513 1513 1514 1516 1518 1520 1523 1526 1527 1529 1529 1529 1530 1531 1533 1534 1535 1535 1535 1536 1537 1537 1538 1538 1537 1537
1490 1489 1484 1479 1476 1476 1477 1479 1475 1474 1475 1478 1482 1485 1487 1489 1493 1496 1499 1502 1505 1507 1509 1510 1511 1512 1513 1515 1517 1519 1521 1523 1525 1526 1527 1527 1527 1529 1530 1530 1531 1531 1531 1532 1532 1532 1533 1533 1533
1487 1486 1485 1470 1467 1471 1480 1485 1472 1471 1472 1476 1481 1484 1486 1489 1492 1495 1498 1500 1504 1506 1507 1508 1510 1510 1510 1512 1513 1516 1518 1520 1521 1522 1523 1523 1523 1524 1525 1525 1526 1526 1526 1526 1527 1527 1527 1527 1527
1483 1486 1479 1466 1462 1468 1474 1479 1472 1471 1472 1476 1480 1483 1485 1488 1492 1495 1497 1499 1502 1504 1505 1506 1508 1509 1509 1510 1510 1512 1513 1515 1516 1518 1518 1518 1518 1518 1519 1519 1520 1520 1521 1521 1521 1522 1521 1521 1521
1484 1475 1470 1466 1462 1468 1477 1478 1472 1470 1473 1477 1480 1483 1486 1489 1492 1494 1497 1498 1500 1501 1503 1505 1506 1507 1508 1507 1508 1508 1509 1510 1511 1512 1513 1514 1514 1513 1513 1514 1514 1515 1515 1515 1515 1515 1515 1515 1516
1483 1482 1480 1472 1466 1474 1481 1481 1474 1470 1472 1476 1481 1485 1488 1491 1493 1495 1497 1497 1499 1501 1501 1502 1503 1503 1504 1504 1504 1504 1505 1506 1507 1507 1508 1508 1508 1508 1508 1509 1509 1509 1510 1509 1510 1510 1509 1509 1511
1486 1488 1485 1476 1470 1476 1481 1480 1474 1471 1471 1475 1480 1485 1489 1492 1495 1497 1498 1498 1499 1499 1499 1500 1500 1500 1500 1500 1500 1500 1501 1502 1502 1502 1502 1502 1502 1503 1504 1504 1504 1504 1504 1503 1504 1504 1503 1503 1505
1485 1486 1484 1483 1480 1479 1483 1481 1471 1464 1466 1472 1478 1485 1489 1494 1496 1499 1500 1500 1500 1500 1499 1498 1497 1497 1496 1496 1496 1495 1496 1495 1496 1496 1496 1495 1496 1496 1497 1497 1497 1497 1497 1497 1497 1497 1498 1497 1498
1492 1483 1485 1489 1494 1493 1486 1492 1472 1460 1461 1469 1478 1486 1491 1494 1497 1500 1501 1502 1501 1500 1499 1497 1496 1495 1494 1493 1492 1491 1490 1489 1489 1490 1490 1489 1489 1490 1489 1490 1490 1490 1490 1490 1490 1491 1491 1492 1492
1490 1487 1488 1489 1491 1492 1484 1486 1473 1458 1466 1475 1483 1490 1493 1496 1498 1500 1501 1501 1501 1500 1498 1496 1494 1493 1491 1490 1489 1488 1486 1485 1484 1483 1483 1482 1483 1483 1483 1484 1484 1483 1483 1483 1484 1484 1485 1486 1487
1488 1489 1487 1483 1485 1497 1488 1492 1483 1468 1471 1478 1486 1490 1494 1495 1496 1498 1499 1499 1499 1498 1497 1495 1493 1491 1489 1487 1486 1485 1483 1481 1479 1478 1477 1476 1476 1476 1476 1476 1476 1477 1477 1477 1478 1479 1480 1481 1482
1490 1498 1505 1502 1497 1499 1490 1493 1484 1467 1468 1475 1481 1486 1489 1492 1494 1495 1496 1496 1496 1495 1494 1492 1490 1488 1486 1485 1483 1481 1479 1477 1475 1473 1471 1470 1470 1470 1470 1470 1470 1471 1471 1472 1473 1474 1476 1477 1478
1492 1496 1511 1521 1514 1499 1485 1483 1469 1465 1471 1476 1481 1485 1488 1489 1491 1492 1493 1493 1492 1492 1491 1489 1487 1485 1483 1481 1479 1477 1475 1472 1470 1468 1466 1465 1464 1464 1465 1464 1465 1465 1467 1468 1469 1470 1472 1473 1474
1493 1493 1489 1502 1502 1502 1487 1473 1469 1472 1475 1478 1481 1482 1484 1485 1487 1488 1489 1489 1489 1489 1488 1486 1484 1482 1480 1477 1475 1473 1470 1467 1465 1463 1461 1459 1459 1458 1459 1459 1460 1461 1463 1464 1465 1467 1468 1470 1472
1488 1488 1493 1502 1514 1515 1498 1487 1486 1480 1477 1477 1479 1480 1481 1483 1484 1485 1486 1486 1486 1485 1484 1483 1481 1478 1476 1474 1471 1469 1465 1462 1459 1457 1456 1454 1454 1454 1454 1455 1455 1456 1458 1460 1462 1464 1466 1468 1470
1485 1489 1491 1496 1500 1512 1513 1499 1472 1473 1472 1475 1477 1478 1479 1480 1481 1482 1483 1483 1483 1482 1481 1479 1478 1475 1473 1470 1467 1464 1461 1458 1455 1453 1452 1451 1450 1450 1451 1451 1452 1453 1456 1458 1460 1462 1464 1466 1468
1480 1486 1492 1505 1506 1502 1507 1498 1469 1471 1473 1474 1475 1477 1478 1479 1479 1479 1480 1480 1480 1480 1478 1477 1475 1473 1470 1468 1465 1462 1458 1456 1453 1451 1450 1449 1449 1449 1449 1450 1451 1453 1455 1456 1458 1461 1463 1465 1467